DateTime,DeltaTime,Roll,TargetAngle,Position,Power
2022-05-24 11:52:07.232,0,-0.49,-1.21,3,9.96
2022-05-24 11:52:07.346,0.114000588655472,-1.55,-8.76,2,55.71
2022-05-24 11:52:07.462,0.230002775788307,-1.64,-4.86,0,18.88
2022-05-24 11:52:07.575,0.343007594347,-0.88,1.82,-3,-17.5
2022-05-24 11:52:07.690,0.458003953099251,0.18,7.34,-4,-48.87
2022-05-24 11:52:07.805,0.573000311851501,0.72,7.13,1,-42.12
2022-05-24 11:52:07.919,0.687000900506973,0.2,0.46,5,16.26
2022-05-24 11:52:08.034,0.80200731754303,0.11,1.95,6,13.6
2022-05-24 11:52:08.148,0.916007906198502,-0.18,-0.02,5,25.41
2022-05-24 11:52:08.259,1.02700106799603,-0.56,-1.89,4,26.43
2022-05-24 11:52:08.374,1.14200748503208,-0.96,-3.51,2,29.03
2022-05-24 11:52:08.488,1.25600807368755,-0.53,1.77,0,-7.54
2022-05-24 11:52:08.604,1.37200020253658,0.31,6.81,0,-33.17
2022-05-24 11:52:08.718,1.48600079119205,0.99,8.76,1,-34.31
2022-05-24 11:52:08.833,1.60100720822811,1.18,7.43,4,-20.93
2022-05-24 11:52:08.947,1.71500779688358,1.08,5.74,7,-1.09
2022-05-24 11:52:09.062,1.83000415563583,0.52,1.53,7,28.71
2022-05-24 11:52:09.177,1.94500051438808,-0.5,-4.5,6,49.88
2022-05-24 11:52:09.292,2.06000693142414,-0.87,-3.08,3,30.34
2022-05-24 11:52:09.406,2.17400752007961,-0.22,3.91,0,-15.65
2022-05-24 11:52:09.521,2.28900387883186,0.6,7.94,0,-37.76
2022-05-24 11:52:09.635,2.40300446748734,1.04,7.87,1,-28.97
2022-05-24 11:52:09.750,2.51800082623959,1,5.65,4,-13.66
2022-05-24 11:52:09.860,2.62800827622414,0.92,5.21,4,-1.05
2022-05-24 11:52:09.975,2.74300463497639,0.81,4.65,6,-2.93
2022-05-24 11:52:10.090,2.85800099372864,-0.16,-2.96,6,44.41
2022-05-24 11:52:10.205,2.97300741076469,-0.98,-5.45,6,45.07
2022-05-24 11:52:10.320,3.08800376951694,-0.93,-1.44,0,22.19
2022-05-24 11:52:10.433,3.20100858807564,0.17,7.42,-3,-46.22
2022-05-24 11:52:10.549,3.31700071692467,0.67,6.77,0,-39.14
2022-05-24 11:52:10.663,3.43100130558014,0.68,4.67,3,-11.44
2022-05-24 11:52:10.778,3.5460077226162,0.7,4.78,6,-4.12
2022-05-24 11:52:10.893,3.66100408136845,0.91,6.39,6,-1.09
2022-05-24 11:52:11.008,3.7760004401207,0.41,1.4,5,21.99
2022-05-24 11:52:11.123,3.89100685715675,-0.59,-4.76,5,41.7
2022-05-24 11:52:11.238,4.006003215909,-1.29,-6.17,3,42.86
2022-05-24 11:52:11.352,4.12000380456448,-0.56,3.01,-2,-13.86
2022-05-24 11:52:11.462,4.23000119626522,0.42,7.86,-3,-48.5
2022-05-24 11:52:11.577,4.34500761330128,0.77,6.48,0,-34.51
2022-05-24 11:52:11.692,4.46000397205353,0.67,4.15,3,-9.21
2022-05-24 11:52:11.807,4.57500033080578,0.73,5.01,4,-5.85
2022-05-24 11:52:11.921,4.68900091946125,0.57,3.47,7,3.87
2022-05-24 11:52:12.036,4.80400733649731,-0.6,-5.49,6,60.4
2022-05-24 11:52:12.150,4.91800792515278,-0.74,-1.59,3,21.61
2022-05-24 11:52:12.265,5.03300428390503,-0.4,1.94,0,-3.94
2022-05-24 11:52:12.380,5.14800064265728,0.22,5.48,0,-28
2022-05-24 11:52:12.494,5.26200123131275,0.72,6.94,1,-27.26
2022-05-24 11:52:12.609,5.37700764834881,1.05,7.46,2,-23.57
2022-05-24 11:52:12.723,5.49100823700428,1.4,8.97,5,-27.32
2022-05-24 11:52:12.838,5.60600459575653,1.34,6.87,6,-1.81
2022-05-24 11:52:12.953,5.72100095450878,0.35,-0.97,7,35.57
2022-05-24 11:52:13.063,5.83100840449333,-0.83,-6.44,7,57.02
2022-05-24 11:52:13.178,5.94600476324558,-0.88,-1.69,3,25.86
2022-05-24 11:52:13.293,6.06100112199783,0.27,8.02,0,-35.72
2022-05-24 11:52:13.407,6.17500171065331,0.81,7.5,1,-30.58
2022-05-24 11:52:13.523,6.29100389778614,1.05,7.07,3,-20.87
2022-05-24 11:52:13.638,6.40600025653839,1.12,6.67,5,-11.3
2022-05-24 11:52:13.752,6.52000084519386,1.34,8.1,6,-11.96
2022-05-24 11:52:13.866,6.63400143384933,1.1,5.2,7,6.56
2022-05-24 11:52:13.981,6.74900785088539,0.05,-2.43,7,44.7
2022-05-24 11:52:14.097,6.86499997973442,-1.13,-7.63,6,60.24
2022-05-24 11:52:14.211,6.97900056838989,-0.74,0.74,1,7.13
2022-05-24 11:52:14.325,7.09300115704536,0.41,8.6,-2,-44.44
2022-05-24 11:52:14.440,7.20800757408142,0.66,5.61,0,-28.33
2022-05-24 11:52:14.554,7.32200816273689,0.7,4.84,2,-15.14
2022-05-24 11:52:14.665,7.43300132453442,0.84,5.82,4,-14.13
2022-05-24 11:52:14.779,7.54700191318989,0.86,5.39,6,-3.62
2022-05-24 11:52:14.895,7.66300410032272,0.04,-1.45,6,37.26
2022-05-24 11:52:15.009,7.7770046889782,-0.99,-6.44,5,51.31
2022-05-24 11:52:15.124,7.89200104773045,-1.28,-4.27,1,30.05
2022-05-24 11:52:15.238,8.00600163638592,-0.45,3.81,-4,-25.35
2022-05-24 11:52:15.353,8.12100805342197,0.21,5.67,-4,-44.12
2022-05-24 11:52:15.468,8.23600441217422,0.15,2.26,0,-18.92
2022-05-24 11:52:15.582,8.3500050008297,0.32,3.97,3,-12.5
2022-05-24 11:52:15.697,8.46500135958195,0.63,5.71,4,-9.58
2022-05-24 11:52:15.812,8.580007776618,0.46,3,4,7.08
2022-05-24 11:52:15.926,8.69400836527348,-0.7,-5.81,4,46.4
2022-05-24 11:52:16.041,8.80900472402573,-1.31,-5.82,3,36.28
2022-05-24 11:52:16.156,8.92400108277798,-1.19,-2.2,-2,14.01
2022-05-24 11:52:16.266,9.03400853276253,-0.33,4.44,-3,-37.66
2022-05-24 11:52:16.381,9.14900489151478,0.31,5.96,-2,-35.59
2022-05-24 11:52:16.495,9.26300548017025,0.37,3.61,1,-16.36
2022-05-24 11:52:16.610,9.3780018389225,0.65,5.74,4,-16.92
2022-05-24 11:52:16.725,9.49300825595856,0.81,5.79,6,-3.74
2022-05-24 11:52:16.840,9.60800461471081,0.03,-1.36,5,38.05
2022-05-24 11:52:16.954,9.72200520336628,-1.05,-6.87,4,49.28
2022-05-24 11:52:17.069,9.83700156211853,-1.13,-2.79,0,18.38
2022-05-24 11:52:17.183,9.951002150774,-0.49,2.86,-3,-22.58
2022-05-24 11:52:17.298,10.0660085678101,0.2,5.71,-4,-39.45
2022-05-24 11:52:17.413,10.1810049265623,0.33,3.83,0,-28.17
2022-05-24 11:52:17.528,10.2960012853146,0.28,2.85,3,-5.16
2022-05-24 11:52:17.643,10.4110077023506,0.48,4.64,5,-5.89
2022-05-24 11:52:17.757,10.5250082910061,0.38,3.01,5,10.55
2022-05-24 11:52:17.869,10.6370072811842,-0.66,-5.15,4,46.78
2022-05-24 11:52:17.983,10.7510078698397,-1.4,-6.77,3,40.58
2022-05-24 11:52:18.097,10.8650084584951,-1.12,-1.17,-1,7.71
2022-05-24 11:52:18.212,10.9800048172474,-0.03,6.62,-3,-42.23
2022-05-24 11:52:18.326,11.0940054059029,0.65,7.45,1,-41.62
2022-05-24 11:52:18.441,11.2090017646551,0.56,3.71,3,-0.13
2022-05-24 11:52:18.555,11.3230023533106,0.56,4.12,5,-2.56
2022-05-24 11:52:18.670,11.4380087703466,0.65,4.94,6,1.14
2022-05-24 11:52:18.785,11.5530051290989,0.13,0.14,4,28.6
2022-05-24 11:52:18.900,11.6680014878511,-0.97,-6.61,4,45.31
2022-05-24 11:52:19.014,11.7820020765066,-1.11,-3.03,1,21.25
2022-05-24 11:52:19.129,11.8970084935427,-0.42,3.34,-2,-20.27
2022-05-24 11:52:19.243,12.0110090821981,0.53,8.19,0,-47.48
2022-05-24 11:52:19.358,12.1260054409504,1.19,9.46,1,-33.99
2022-05-24 11:52:19.473,12.2410017997026,1.12,6.05,5,-13.72
2022-05-24 11:52:19.583,12.3510092496872,0.71,2.87,7,15.98
2022-05-24 11:52:19.698,12.4660056084394,0.03,-0.85,7,35.37
2022-05-24 11:52:19.813,12.5810019671917,-0.53,-2.62,6,37.4
2022-05-24 11:52:19.928,12.6960083842278,-0.56,-0.34,3,19.55
2022-05-24 11:52:20.043,12.81100474298,-0.09,3.63,0,-10.41
2022-05-24 11:52:20.158,12.9260011017323,0.65,7.7,1,-36.7
2022-05-24 11:52:20.272,13.0400016903877,1.21,9.12,2,-30.24
2022-05-24 11:52:20.387,13.1550081074238,1.51,9.19,4,-25.78
2022-05-24 11:52:20.502,13.270004466176,1.48,7.62,6,-9.77
2022-05-24 11:52:20.616,13.3840050548315,0.7,1.21,7,27.28
2022-05-24 11:52:20.730,13.498005643487,-0.47,-4.99,7,52.68
2022-05-24 11:52:20.846,13.6140078306198,-0.51,-0.22,5,20.4
2022-05-24 11:52:20.959,13.7270025908947,-0.08,3.57,0,-1.63
2022-05-24 11:52:21.074,13.8420090079308,0.54,6.77,0,-34.98
2022-05-24 11:52:21.185,13.9530021697283,0.95,7.42,2,-28.09
2022-05-24 11:52:21.300,14.0680085867643,1.1,6.93,6,-15.46
2022-05-24 11:52:21.415,14.1830049455166,1.52,9.66,6,-12.81
2022-05-24 11:52:21.529,14.2970055341721,1.63,8.79,7,-10.44
2022-05-24 11:52:21.643,14.4110061228275,0.67,0.33,7,35.47
2022-05-24 11:52:21.758,14.5260024815798,-0.56,-5.59,6,53.31
2022-05-24 11:52:21.873,14.6410088986158,-0.48,0.4,2,11.49
2022-05-24 11:52:21.988,14.7560052573681,0.24,6.05,0,-27.11
2022-05-24 11:52:22.103,14.8710016161203,0.92,8.54,0,-37.25
2022-05-24 11:52:22.218,14.9860080331564,1.13,7.24,3,-25.64
2022-05-24 11:52:22.332,15.1000086218119,1.09,6.07,6,-7.19
2022-05-24 11:52:22.446,15.2140092104673,1.28,7.74,7,-6.25
2022-05-24 11:52:22.562,15.3300013393164,1.07,5.24,7,9.34
2022-05-24 11:52:22.672,15.4400087893009,-0.12,-3.76,8,49.95
2022-05-24 11:52:22.787,15.5550051480532,-0.96,-5.43,6,53.08
2022-05-24 11:52:22.901,15.6690057367086,-0.08,5.5,0,-15.13
2022-05-24 11:52:23.016,15.7840020954609,1.04,10.87,0,-54.98
2022-05-24 11:52:23.131,15.8990085124969,1.27,7.94,2,-25.5
2022-05-24 11:52:23.245,16.0130091011524,1.18,6.11,6,-10.85
2022-05-24 11:52:23.360,16.1280054599047,1.2,6.78,7,0.4
2022-05-24 11:52:23.474,16.2420060485601,1.09,5.74,8,6.17
2022-05-24 11:52:23.589,16.3570024073124,0.44,0.77,7,33.48
2022-05-24 11:52:23.704,16.4720088243484,-0.61,-5.04,7,50.34
2022-05-24 11:52:23.819,16.5870051831007,-0.53,0.28,3,17.84
2022-05-24 11:52:23.933,16.7010057717562,0.33,6.96,0,-28.02
2022-05-24 11:52:24.048,16.8160021305084,1.12,9.75,1,-43.33
2022-05-24 11:52:24.163,16.9310085475445,1.42,8.81,4,-26.95
2022-05-24 11:52:24.273,17.0410059392452,1.26,6.16,7,-1.93
2022-05-24 11:52:24.388,17.1560022979975,1.02,4.91,8,11.75
2022-05-24 11:52:24.503,17.2710087150335,0.39,0.71,7,32.37
2022-05-24 11:52:24.618,17.3860050737858,-0.44,-3.38,7,41.67
2022-05-24 11:52:24.732,17.5000056624413,-0.62,-1.25,4,27.92
2022-05-24 11:52:24.847,17.6150020211935,-0.04,4.33,1,-11.47
2022-05-24 11:52:24.963,17.7310042083263,0.95,10.01,1,-43.66
2022-05-24 11:52:25.076,17.844009026885,1.34,8.88,3,-27.44
2022-05-24 11:52:25.190,17.9580096155405,1.44,8,5,-15.27
2022-05-24 11:52:25.305,18.0730059742928,1.41,7.34,7,-6.17
2022-05-24 11:52:25.420,18.188002333045,0.75,1.99,7,26.92
2022-05-24 11:52:25.534,18.3020029217005,-0.4,-4.66,7,50.99
2022-05-24 11:52:25.650,18.4180051088333,-0.46,-0.11,5,20.27
2022-05-24 11:52:25.764,18.5320056974888,0.07,4.53,0,-6.35
2022-05-24 11:52:25.875,18.6430089175701,0.84,8.58,2,-42.86
2022-05-24 11:52:25.989,18.7570095062256,1.23,8.5,3,-21.36
2022-05-24 11:52:26.104,18.8720058649778,1.49,8.91,5,-21.74
2022-05-24 11:52:26.219,18.9870022237301,1.8,10.32,7,-20.1
2022-05-24 11:52:26.333,19.1010028123856,1.53,6.74,8,6.57
2022-05-24 11:52:26.449,19.2170049995184,0.34,-1.95,9,47.77
2022-05-24 11:52:26.563,19.3310055881739,-0.81,-6.19,8,62.95
2022-05-24 11:52:26.678,19.4460019469261,0.16,6.78,3,-13.8
2022-05-24 11:52:26.791,19.5590067654848,1.04,9.9,1,-36.03
2022-05-24 11:52:26.907,19.6750089526176,1.32,8.33,4,-28.11
2022-05-24 11:52:27.022,19.7900053113699,1.4,7.77,6,-10.46
2022-05-24 11:52:27.137,19.9050016701221,1.87,11.24,7,-22.83
2022-05-24 11:52:27.251,20.0190022587776,1.93,9.78,8,-9.06
2022-05-24 11:52:27.366,20.1340086758137,1.08,2.39,8,29.44
2022-05-24 11:52:27.480,20.2480092644691,-0.21,-4.48,8,53.35
2022-05-24 11:52:27.591,20.3590024262667,-0.42,-0.62,5,26.76
2022-05-24 11:52:27.705,20.4730030149221,0.07,4.39,0,-7.47
2022-05-24 11:52:27.820,20.5880094319582,1.02,10.08,1,-50.39
2022-05-24 11:52:27.936,20.7040015608072,1.81,12.42,2,-43.93
2022-05-24 11:52:28.049,20.8170063793659,1.74,8.41,7,-18.15
2022-05-24 11:52:28.165,20.9330085664988,1.42,6.07,9,11.43
2022-05-24 11:52:28.279,21.0470091551542,1.07,4.58,10,19.36
2022-05-24 11:52:28.394,21.1620055139065,0.12,-1.72,11,51.71
2022-05-24 11:52:28.507,21.2750002741814,-0.56,-3.23,7,55.83
2022-05-24 11:52:28.622,21.3900066912174,-0.04,4.07,2,-4.02
2022-05-24 11:52:28.738,21.5060088783503,0.77,8.47,0,-35.93
2022-05-24 11:52:28.853,21.6210052371025,1.21,8.58,2,-34.77
2022-05-24 11:52:28.967,21.735005825758,1.55,9.54,4,-27.56
2022-05-24 11:52:29.082,21.8500021845102,1.81,10.14,7,-22.63
2022-05-24 11:52:29.196,21.9640027731657,1.61,7.31,10,4.13
2022-05-24 11:52:29.308,22.0760017633438,0.54,-0.56,10,50.87
2022-05-24 11:52:29.421,22.1890065819025,0.0600000000000001,0.03,9,36.01
2022-05-24 11:52:29.536,22.3040029406548,-0.08,1.07,4,27.5
2022-05-24 11:52:29.652,22.4200051277876,0.21,4.04,0,-8.94
2022-05-24 11:52:29.766,22.5340057164431,0.71,6.88,0,-32.75
2022-05-24 11:52:29.881,22.6490020751953,1.21,8.84,2,-34.21
2022-05-24 11:52:29.995,22.7630026638508,1.61,9.99,4,-28.17
2022-05-24 11:52:30.110,22.8780090808868,1.82,9.97,7,-19.92
2022-05-24 11:52:30.224,22.9920096695423,1.3,4.74,9,18.08
2022-05-24 11:52:30.340,23.1080017983913,0.21,-1.99,8,51.12
2022-05-24 11:52:30.454,23.2220023870468,-0.27,-1.22,7,31.73
2022-05-24 11:52:30.568,23.3360029757023,-0.05,2.69,4,10.29
2022-05-24 11:52:30.683,23.4510093927383,0.3,4.67,2,-7.78
2022-05-24 11:52:30.798,23.5660057514906,0.88,7.96,2,-27.75
2022-05-24 11:52:30.908,23.6760031431913,1.57,11.06,2,-36.87
2022-05-24 11:52:31.023,23.7910095602274,1.75,9.57,5,-26.21
2022-05-24 11:52:31.138,23.9060059189796,1.6,7.55,7,-3.72
2022-05-24 11:52:31.253,24.0210022777319,0.94,2.75,8,23.47
2022-05-24 11:52:31.367,24.1350028663874,-0.03,-2.43,9,45.89
2022-05-24 11:52:31.481,24.2490034550428,-0.36,-0.9,6,35.83
2022-05-24 11:52:31.597,24.3650056421757,0.17,4.89,3,-6.53
2022-05-24 11:52:31.711,24.4790062308311,0.67,6.79,1,-19.42
2022-05-24 11:52:31.825,24.5930068194866,1.15,8.55,2,-32.17
2022-05-24 11:52:31.940,24.7080031782389,1.25,7.27,3,-16.5
2022-05-24 11:52:32.055,24.8230095952749,1.23,6.67,4,-11.97
2022-05-24 11:52:32.170,24.9380059540272,1.31,7.4,5,-13.06
2022-05-24 11:52:32.285,25.0530023127794,0.75,2.38,6,16.41
2022-05-24 11:52:32.400,25.1680087298155,-0.52,-5.63,6,53.84
2022-05-24 11:52:32.510,25.2780061215162,-0.82,-2.54,4,27.49
2022-05-24 11:52:32.625,25.3930024802685,0,5.52,2,-18.01
2022-05-24 11:52:32.739,25.507003068924,0.69,7.64,1,-25.61
2022-05-24 11:52:32.853,25.6210036575794,1.07,7.8,2,-26.48
2022-05-24 11:52:32.968,25.7360000163317,1.05,5.93,4,-11.25
2022-05-24 11:52:33.083,25.8510064333677,0.94,5.15,6,-1.44
2022-05-24 11:52:33.198,25.96600279212,0.86,4.95,6,5.8
2022-05-24 11:52:33.313,26.081009209156,0.24,0.17,6,26.95
2022-05-24 11:52:33.428,26.1960055679083,-0.51,-3.32,5,38.66
2022-05-24 11:52:33.543,26.3110019266605,-0.58,-0.64,3,16.51
2022-05-24 11:52:33.657,26.425002515316,-0.05,4.12,1,-11.95
2022-05-24 11:52:33.771,26.5390031039715,0.74,8.25,1,-33.87
2022-05-24 11:52:33.886,26.6540095210075,1,7.03,2,-20.37
2022-05-24 11:52:34.001,26.7690058797598,1,5.86,4,-11.66
2022-05-24 11:52:34.111,26.8790032714605,0.79,4.11,5,3.88
2022-05-24 11:52:34.226,26.9940096884966,0.3,0.93,5,19.86
2022-05-24 11:52:34.340,27.1080002188683,-0.41,-2.72,6,33.03
2022-05-24 11:52:34.455,27.2230066359043,-0.57,-1.01,4,25.36
2022-05-24 11:52:34.570,27.3380029946566,-0.16,3.11,2,-3.68
2022-05-24 11:52:34.685,27.4530094116926,0.37,5.69,1,-18.44
2022-05-24 11:52:34.799,27.5670100003481,1.07,9.19,2,-35.34
2022-05-24 11:52:34.913,27.6810005307198,1.14,6.71,3,-12.72
2022-05-24 11:52:35.028,27.7960069477558,0.95,4.82,5,-3.27
2022-05-24 11:52:35.143,27.9110033065081,0.7,3.56,5,9.04
2022-05-24 11:52:35.258,28.0260097235441,0.08,-0.42,4,24.84
2022-05-24 11:52:35.372,28.1400002539158,-0.5,-2.51,4,25.56
2022-05-24 11:52:35.488,28.2560024410486,-0.56,-0.55,4,14.91
2022-05-24 11:52:35.601,28.3690072596073,-0.31,1.82,3,6.07
2022-05-24 11:52:35.712,28.4800004214048,0.17,4.77,3,-10.39
2022-05-24 11:52:35.828,28.5960026085377,1.1,10.26,3,-32.85
2022-05-24 11:52:35.942,28.7100031971931,1.73,11.46,3,-32.3
2022-05-24 11:52:36.057,28.8250096142292,1.33,5.43,5,-1.33
2022-05-24 11:52:36.171,28.9390001446009,0.31,-1.36,6,34.48
2022-05-24 11:52:36.286,29.0540065616369,-0.33,-2.09,6,32.19
2022-05-24 11:52:36.402,29.1700087487698,-0.29,0.97,4,15.37
2022-05-24 11:52:36.515,29.2830035090446,0.09,3.97,3,-5.18
2022-05-24 11:52:36.630,29.3980099260807,0.38,4.74,2,-7.47
2022-05-24 11:52:36.744,29.5120004564524,0.86,7.4,3,-23.61
2022-05-24 11:52:36.860,29.6280026435852,1.16,7.76,3,-16.14
2022-05-24 11:52:36.974,29.7420032322407,1.24,7.16,3,-14.38
2022-05-24 11:52:37.089,29.8570096492767,1.01,4.88,3,-4.16
2022-05-24 11:52:37.203,29.9710001796484,0.27,-0.26,5,18.4
2022-05-24 11:52:37.314,30.0820033997297,-0.53,-3.59,3,38.62
2022-05-24 11:52:37.428,30.1960039883852,-0.69,-1.48,2,11.89
2022-05-24 11:52:37.544,30.312006175518,-0.21,3.24,0,-10.98
2022-05-24 11:52:37.658,30.4260067641735,0.39,6.13,0,-28.04
